owner,sensor,date,latitude,longitude,vertical_datum,wind_speed,wind_to_direction,wind_speed_of_gust,qcFlag 
TCOON,ioos:station:TCOON:005:1,2015-09-01T00:00:00Z,27.6346,-97.2370,0.0,5.7,151.0,7.1,'11111222,11111222,11111222' 
TCOON,ioos:station:TCOON:005:1,2015-09-01T00:06:00Z,27.6346,-97.2370,0.0,5.1,134.0,7.4,'11111222,11111222,11111222' 
TCOON,ioos:station:TCOON:005:1,2015-09-01T00:12:00Z,27.6346,-97.2370,0.0,4.3,143.0,7.0,'11111222,11111222,11111222' 
TCOON,ioos:station:TCOON:005:1,2015-09-01T00:18:00Z,27.6346,-97.2370,0.0,4.4,147.0,6.3,'1111122,1111122,1111122' 
TCOON,ioos:station:TCOON:005:1,2015-09-01T00:24:00Z,27.6346,-97.2370,0.0,4.4,147.0,6.3,'11111222,11111222,11111222' 
TCOON,ioos:station:TCOON:005:1,2015-09-01T00:30:00Z,27.6346,-97.2370,0.0,4.8,148.0,7.4,'11111222,11111222,11111222' 
TCOON,ioos:station:TCOON:005:1,2015-09-01T00:36:00Z,27.6346,-97.2370,0.0,5.3,156.0,7.0,'11111222,11111222,11111222' 
TCOON,ioos:station:TCOON:005:1,2015-09-01T00:42:00Z,27.6346,-97.2370,0.0,5.1,154.0,6.7,'11111222,11111222,11111222' 
TCOON,ioos:station:TCOON:005:1,2015-09-01T00:48:00Z,27.6346,-97.2370,0.0,5.1,142.0,6.7,'11111222,11111222,11111222' 
TCOON,ioos:station:TCOON:005:1,2015-09-01T00:54:00Z,27.6346,-97.2370,0.0,4.7,136.0,6.5,'11111222,11111222,11111222' 
TCOON,ioos:station:TCOON:005:1,2015-09-01T01:00:00Z,27.6346,-97.2370,0.0,5.0,145.0,7.2,'11111222,11111222,11111222' 
TCOON,ioos:station:TCOON:005:1,2015-09-01T01:06:00Z,27.6346,-97.2370,0.0,5.6,134.0,6.7,'11111222,11111222,11111222' 
TCOON,ioos:station:TCOON:005:1,2015-09-01T01:12:00Z,27.6346,-97.2370,0.0,5.4,123.0,7.1,'11111222,11111222,11111222' 
TCOON,ioos:station:TCOON:005:1,2015-09-01T01:18:00Z,27.6346,-97.2370,0.0,4.7,123.0,7.2,'1111122,1111122,1111122' 
TCOON,ioos:station:TCOON:005:1,2015-09-01T01:24:00Z,27.6346,-97.2370,0.0,4.7,123.0,7.2,'11111222,11111222,11111222' 
TCOON,ioos:station:TCOON:005:1,2015-09-01T01:30:00Z,27.6346,-97.2370,0.0,6.5,131.0,8.1,'11111222,11111222,11111222' 
TCOON,ioos:station:TCOON:005:1,2015-09-01T01:36:00Z,27.6346,-97.2370,0.0,6.0,125.0,7.5,'11111222,11111222,11111222' 
TCOON,ioos:station:TCOON:005:1,2015-09-01T01:42:00Z,27.6346,-97.2370,0.0,4.7,132.0,7.2,'11111222,11111222,11111222' 
TCOON,ioos:station:TCOON:005:1,2015-09-01T01:48:00Z,27.6346,-97.2370,0.0,5.3,124.0,6.9,'11111222,11111222,11111222' 
TCOON,ioos:station:TCOON:005:1,2015-09-01T01:54:00Z,27.6346,-97.2370,0.0,5.6,126.0,7.0,'11111222,11111222,11111222' 
TCOON,ioos:station:TCOON:005:1,2015-09-01T02:00:00Z,27.6346,-97.2370,0.0,6.4,117.0,7.8,'11111222,11111222,11111222' 
TCOON,ioos:station:TCOON:005:1,2015-09-01T02:06:00Z,27.6346,-97.2370,0.0,5.5,116.0,7.9,'11111222,11111222,11111222' 
TCOON,ioos:station:TCOON:005:1,2015-09-01T02:12:00Z,27.6346,-97.2370,0.0,6.4,121.0,8.2,'1111122,1111122,1111122' 
TCOON,ioos:station:TCOON:005:1,2015-09-01T02:18:00Z,27.6346,-97.2370,0.0,6.4,121.0,8.2,'11111222,11111222,11111222' 
TCOON,ioos:station:TCOON:005:1,2015-09-01T02:24:00Z,27.6346,-97.2370,0.0,6.4,113.0,8.2,'11111222,11111222,11111222' 
TCOON,ioos:station:TCOON:005:1,2015-09-01T02:30:00Z,27.6346,-97.2370,0.0,6.4,125.0,7.7,'11111222,11111222,11111222' 
TCOON,ioos:station:TCOON:005:1,2015-09-01T02:36:00Z,27.6346,-97.2370,0.0,5.8,124.0,7.6,'11111222,11111222,11111222' 
TCOON,ioos:station:TCOON:005:1,2015-09-01T02:42:00Z,27.6346,-97.2370,0.0,5.6,121.0,7.4,'11111222,11111222,11111222' 
TCOON,ioos:station:TCOON:005:1,2015-09-01T02:48:00Z,27.6346,-97.2370,0.0,6.0,123.0,7.8,'11111222,11111222,11111222' 
TCOON,ioos:station:TCOON:005:1,2015-09-01T02:54:00Z,27.6346,-97.2370,0.0,5.4,120.0,7.1,'11111222,11111222,11111222' 
TCOON,ioos:station:TCOON:005:1,2015-09-01T03:00:00Z,27.6346,-97.2370,0.0,5.3,121.0,7.1,'11111222,11111222,11111222' 
TCOON,ioos:station:TCOON:005:1,2015-09-01T03:06:00Z,27.6346,-97.2370,0.0,4.7,123.0,7.1,'11111222,11111222,11111222' 
TCOON,ioos:station:TCOON:005:1,2015-09-01T03:12:00Z,27.6346,-97.2370,0.0,5.8,117.0,7.1,'11111222,11111222,11111222' 
TCOON,ioos:station:TCOON:005:1,2015-09-01T03:18:00Z,27.6346,-97.2370,0.0,4.6,134.0,6.7,'1111122,1111122,1111122' 
TCOON,ioos:station:TCOON:005:1,2015-09-01T03:24:00Z,27.6346,-97.2370,0.0,4.6,134.0,6.7,'11111222,11111222,11111222' 
TCOON,ioos:station:TCOON:005:1,2015-09-01T03:30:00Z,27.6346,-97.2370,0.0,5.3,128.0,6.9,'11111222,11111222,11111222' 
TCOON,ioos:station:TCOON:005:1,2015-09-01T03:36:00Z,27.6346,-97.2370,0.0,4.7,127.0,6.6,'11111222,11111222,11111222' 
TCOON,ioos:station:TCOON:005:1,2015-09-01T03:42:00Z,27.6346,-97.2370,0.0,4.2,135.0,5.8,'11111222,11111222,11111222' 
TCOON,ioos:station:TCOON:005:1,2015-09-01T03:48:00Z,27.6346,-97.2370,0.0,4.4,133.0,6.3,'11111222,11111222,11111222' 
TCOON,ioos:station:TCOON:005:1,2015-09-01T03:54:00Z,27.6346,-97.2370,0.0,4.4,139.0,6.6,'11111222,11111222,11111222' 
TCOON,ioos:station:TCOON:005:1,2015-09-01T04:00:00Z,27.6346,-97.2370,0.0,4.1,138.0,6.1,'11111222,11111222,11111222' 
TCOON,ioos:station:TCOON:005:1,2015-09-01T04:06:00Z,27.6346,-97.2370,0.0,4.4,134.0,6.6,'11111222,11111222,11111222' 
TCOON,ioos:station:TCOON:005:1,2015-09-01T04:12:00Z,27.6346,-97.2370,0.0,5.1,128.0,6.7,'11111222,11111222,11111222' 
TCOON,ioos:station:TCOON:005:1,2015-09-01T04:18:00Z,27.6346,-97.2370,0.0,5.2,121.0,7.0,'1111122,1111122,1111122' 
TCOON,ioos:station:TCOON:005:1,2015-09-01T04:24:00Z,27.6346,-97.2370,0.0,5.2,121.0,7.0,'11111222,11111222,11111222' 
TCOON,ioos:station:TCOON:005:1,2015-09-01T04:30:00Z,27.6346,-97.2370,0.0,4.7,123.0,6.1,'11111222,11111222,11111222' 
TCOON,ioos:station:TCOON:005:1,2015-09-01T04:36:00Z,27.6346,-97.2370,0.0,4.4,123.0,6.4,'11111222,11111222,11111222' 
TCOON,ioos:station:TCOON:005:1,2015-09-01T04:42:00Z,27.6346,-97.2370,0.0,4.8,129.0,7.1,'11111222,11111222,11111222' 
TCOON,ioos:station:TCOON:005:1,2015-09-01T04:48:00Z,27.6346,-97.2370,0.0,4.2,126.0,5.5,'11111222,11111222,11111222' 
TCOON,ioos:station:TCOON:005:1,2015-09-01T04:54:00Z,27.6346,-97.2370,0.0,5.4,122.0,7.4,'11111222,11111222,11111222' 
TCOON,ioos:station:TCOON:005:1,2015-09-01T05:00:00Z,27.6346,-97.2370,0.0,5.7,128.0,7.6,'11111222,11111222,11111222' 
TCOON,ioos:station:TCOON:005:1,2015-09-01T05:06:00Z,27.6346,-97.2370,0.0,4.4,132.0,6.8,'11111222,11111222,11111222' 
TCOON,ioos:station:TCOON:005:1,2015-09-01T05:12:00Z,27.6346,-97.2370,0.0,4.4,132.0,5.6,'11111222,11111222,11111222' 
TCOON,ioos:station:TCOON:005:1,2015-09-01T05:18:00Z,27.6346,-97.2370,0.0,2.9,141.0,5.3,'1111122,1111122,1111122' 
TCOON,ioos:station:TCOON:005:1,2015-09-01T05:24:00Z,27.6346,-97.2370,0.0,2.9,141.0,5.3,'11111222,11111222,11111222' 
TCOON,ioos:station:TCOON:005:1,2015-09-01T05:30:00Z,27.6346,-97.2370,0.0,4.7,102.0,5.6,'11111222,11111222,11111222' 
TCOON,ioos:station:TCOON:005:1,2015-09-01T05:36:00Z,27.6346,-97.2370,0.0,4.5,109.0,6.0,'11111222,11111222,11111222' 
TCOON,ioos:station:TCOON:005:1,2015-09-01T05:42:00Z,27.6346,-97.2370,0.0,5.1,104.0,6.9,'11111222,11111222,11111222' 
TCOON,ioos:station:TCOON:005:1,2015-09-01T05:48:00Z,27.6346,-97.2370,0.0,4.3,77.0,6.4,'11111222,11111222,11111222' 
TCOON,ioos:station:TCOON:005:1,2015-09-01T05:54:00Z,27.6346,-97.2370,0.0,4.5,64.0,4.9,'11111222,11111222,11111222' 
TCOON,ioos:station:TCOON:005:1,2015-09-01T06:00:00Z,27.6346,-97.2370,0.0,5.2,107.0,6.5,'11111222,11111222,11111222' 
TCOON,ioos:station:TCOON:005:1,2015-09-01T06:06:00Z,27.6346,-97.2370,0.0,7.5,96.0,9.3,'11111222,11111222,11111222' 
TCOON,ioos:station:TCOON:005:1,2015-09-01T06:12:00Z,27.6346,-97.2370,0.0,9.1,95.0,10.9,'11111222,11111222,11111222' 
TCOON,ioos:station:TCOON:005:1,2015-09-01T06:18:00Z,27.6346,-97.2370,0.0,11.9,78.0,13.2,'11111222,11111222,11111222' 
TCOON,ioos:station:TCOON:005:1,2015-09-01T06:24:00Z,27.6346,-97.2370,0.0,11.7,81.0,13.5,'11111222,11111222,11111222' 
TCOON,ioos:station:TCOON:005:1,2015-09-01T06:30:00Z,27.6346,-97.2370,0.0,9.1,76.0,10.8,'1111122,1111122,1111122' 
TCOON,ioos:station:TCOON:005:1,2015-09-01T06:36:00Z,27.6346,-97.2370,0.0,9.1,76.0,10.8,'11111222,11111222,11111222' 
TCOON,ioos:station:TCOON:005:1,2015-09-01T06:42:00Z,27.6346,-97.2370,0.0,6.7,88.0,9.3,'11111222,11111222,11111222' 
TCOON,ioos:station:TCOON:005:1,2015-09-01T06:48:00Z,27.6346,-97.2370,0.0,7.2,118.0,9.3,'11111222,11111222,11111222' 
TCOON,ioos:station:TCOON:005:1,2015-09-01T06:54:00Z,27.6346,-97.2370,0.0,6.8,112.0,10.6,'11111222,11111222,11111222' 
TCOON,ioos:station:TCOON:005:1,2015-09-01T07:00:00Z,27.6346,-97.2370,0.0,3.7,71.0,6.7,'11111222,11111222,11111222' 
TCOON,ioos:station:TCOON:005:1,2015-09-01T07:06:00Z,27.6346,-97.2370,0.0,2.8,67.0,3.5,'11111222,11111222,11111222' 
TCOON,ioos:station:TCOON:005:1,2015-09-01T07:12:00Z,27.6346,-97.2370,0.0,3.2,75.0,3.8,'11111222,11111222,11111222' 
TCOON,ioos:station:TCOON:005:1,2015-09-01T07:18:00Z,27.6346,-97.2370,0.0,3.5,88.0,4.2,'11111222,11111222,11111222' 
TCOON,ioos:station:TCOON:005:1,2015-09-01T07:24:00Z,27.6346,-97.2370,0.0,3.2,100.0,4.1,'11111222,11111222,11111222' 
TCOON,ioos:station:TCOON:005:1,2015-09-01T07:30:00Z,27.6346,-97.2370,0.0,2.9,89.0,3.5,'11111222,11111222,11111222' 
TCOON,ioos:station:TCOON:005:1,2015-09-01T07:36:00Z,27.6346,-97.2370,0.0,3.4,78.0,4.0,'11111222,11111222,11111222' 
TCOON,ioos:station:TCOON:005:1,2015-09-01T07:42:00Z,27.6346,-97.2370,0.0,3.7,85.0,4.3,'11111222,11111222,11111222' 
TCOON,ioos:station:TCOON:005:1,2015-09-01T07:48:00Z,27.6346,-97.2370,0.0,3.9,98.0,5.1,'11111222,11111222,11111222' 
TCOON,ioos:station:TCOON:005:1,2015-09-01T07:54:00Z,27.6346,-97.2370,0.0,3.9,102.0,4.9,'11111222,11111222,11111222' 
TCOON,ioos:station:TCOON:005:1,2015-09-01T08:00:00Z,27.6346,-97.2370,0.0,2.3,122.0,3.9,'1111122,1111122,1111122' 
TCOON,ioos:station:TCOON:005:1,2015-09-01T08:06:00Z,27.6346,-97.2370,0.0,2.3,122.0,3.9,'11111222,11111222,11111222' 
TCOON,ioos:station:TCOON:005:1,2015-09-01T08:12:00Z,27.6346,-97.2370,0.0,7.1,182.0,9.7,'11111222,11111222,11111222' 
TCOON,ioos:station:TCOON:005:1,2015-09-01T08:18:00Z,27.6346,-97.2370,0.0,7.4,176.0,9.9,'11111222,11111222,11111222' 
TCOON,ioos:station:TCOON:005:1,2015-09-01T08:24:00Z,27.6346,-97.2370,0.0,6.1,190.0,8.7,'11111222,11111222,11111222' 
TCOON,ioos:station:TCOON:005:1,2015-09-01T08:30:00Z,27.6346,-97.2370,0.0,6.0,174.0,10.1,'11111222,11111222,11111222' 
TCOON,ioos:station:TCOON:005:1,2015-09-01T08:36:00Z,27.6346,-97.2370,0.0,5.3,148.0,7.4,'11111222,11111222,11111222' 
TCOON,ioos:station:TCOON:005:1,2015-09-01T08:42:00Z,27.6346,-97.2370,0.0,3.0,158.0,6.8,'11111222,11111222,11111222' 
TCOON,ioos:station:TCOON:005:1,2015-09-01T08:48:00Z,27.6346,-97.2370,0.0,1.5,216.0,3.6,'11111222,11111222,11111222' 
TCOON,ioos:station:TCOON:005:1,2015-09-01T08:54:00Z,27.6346,-97.2370,0.0,0.4,216.0,1.7,'11111222,11111222,11111222' 
TCOON,ioos:station:TCOON:005:1,2015-09-01T09:00:00Z,27.6346,-97.2370,0.0,0.7,173.0,1.0,'11111222,11111222,11111222' 
TCOON,ioos:station:TCOON:005:1,2015-09-01T09:06:00Z,27.6346,-97.2370,0.0,2.1,134.0,2.4,'11111222,11111222,11111222' 
TCOON,ioos:station:TCOON:005:1,2015-09-01T09:12:00Z,27.6346,-97.2370,0.0,2.6,133.0,3.0,'11111222,11111222,11111222' 
TCOON,ioos:station:TCOON:005:1,2015-09-01T09:18:00Z,27.6346,-97.2370,0.0,2.2,131.0,3.0,'11111222,11111222,11111222' 
TCOON,ioos:station:TCOON:005:1,2015-09-01T09:24:00Z,27.6346,-97.2370,0.0,2.2,160.0,2.7,'1111122,1111122,1111122' 
TCOON,ioos:station:TCOON:005:1,2015-09-01T09:30:00Z,27.6346,-97.2370,0.0,2.2,160.0,2.7,'11111222,11111222,11111222' 
TCOON,ioos:station:TCOON:005:1,2015-09-01T09:36:00Z,27.6346,-97.2370,0.0,99.0,-9999.0,99.0,'11144222,99999999,11144222' 
TCOON,ioos:station:TCOON:005:1,2015-09-01T09:42:00Z,27.6346,-97.2370,0.0,99.0,-9999.0,99.0,'11144222,99999999,11144222' 
TCOON,ioos:station:TCOON:005:1,2015-09-01T09:48:00Z,27.6346,-97.2370,0.0,99.0,-9999.0,99.0,'11144222,99999999,11144222' 
TCOON,ioos:station:TCOON:005:1,2015-09-01T09:54:00Z,27.6346,-97.2370,0.0,2.0,155.0,2.5,'11111222,11111222,11111222' 
TCOON,ioos:station:TCOON:005:1,2015-09-01T10:00:00Z,27.6346,-97.2370,0.0,1.8,150.0,2.3,'11111222,11111222,11111222' 
TCOON,ioos:station:TCOON:005:1,2015-09-01T10:06:00Z,27.6346,-97.2370,0.0,2.1,167.0,2.7,'11111222,11111222,11111222' 
TCOON,ioos:station:TCOON:005:1,2015-09-01T10:12:00Z,27.6346,-97.2370,0.0,1.9,139.0,2.4,'11111222,11111222,11111222' 
TCOON,ioos:station:TCOON:005:1,2015-09-01T10:18:00Z,27.6346,-97.2370,0.0,3.9,133.0,5.1,'1111122,1111122,1111122' 
TCOON,ioos:station:TCOON:005:1,2015-09-01T10:24:00Z,27.6346,-97.2370,0.0,3.9,133.0,5.1,'11111222,11111222,11111222' 
TCOON,ioos:station:TCOON:005:1,2015-09-01T10:30:00Z,27.6346,-97.2370,0.0,6.6,140.0,8.6,'11111222,11111222,11111222' 
TCOON,ioos:station:TCOON:005:1,2015-09-01T10:36:00Z,27.6346,-97.2370,0.0,6.1,136.0,7.6,'11111222,11111222,11111222' 
TCOON,ioos:station:TCOON:005:1,2015-09-01T10:42:00Z,27.6346,-97.2370,0.0,6.8,142.0,11.1,'11111222,11111222,11111222' 
TCOON,ioos:station:TCOON:005:1,2015-09-01T10:48:00Z,27.6346,-97.2370,0.0,4.6,140.0,8.1,'11111222,11111222,11111222' 
TCOON,ioos:station:TCOON:005:1,2015-09-01T10:54:00Z,27.6346,-97.2370,0.0,6.5,146.0,8.7,'11111222,11111222,11111222' 
TCOON,ioos:station:TCOON:005:1,2015-09-01T11:00:00Z,27.6346,-97.2370,0.0,6.9,145.0,9.3,'11111222,11111222,11111222' 
TCOON,ioos:station:TCOON:005:1,2015-09-01T11:06:00Z,27.6346,-97.2370,0.0,7.7,151.0,11.0,'11111222,11111222,11111222' 
TCOON,ioos:station:TCOON:005:1,2015-09-01T11:12:00Z,27.6346,-97.2370,0.0,7.0,141.0,11.0,'11111222,11111222,11111222' 
TCOON,ioos:station:TCOON:005:1,2015-09-01T11:18:00Z,27.6346,-97.2370,0.0,7.5,141.0,10.2,'11111222,11111222,11111222' 
TCOON,ioos:station:TCOON:005:1,2015-09-01T11:24:00Z,27.6346,-97.2370,0.0,6.0,143.0,10.7,'11111222,11111222,11111222' 
TCOON,ioos:station:TCOON:005:1,2015-09-01T11:30:00Z,27.6346,-97.2370,0.0,7.5,142.0,9.3,'1111122,1111122,1111122' 
TCOON,ioos:station:TCOON:005:1,2015-09-01T11:36:00Z,27.6346,-97.2370,0.0,7.5,142.0,9.3,'11111222,11111222,11111222' 
TCOON,ioos:station:TCOON:005:1,2015-09-01T11:42:00Z,27.6346,-97.2370,0.0,8.1,142.0,10.0,'11111222,11111222,11111222' 
TCOON,ioos:station:TCOON:005:1,2015-09-01T11:48:00Z,27.6346,-97.2370,0.0,7.2,137.0,10.2,'11111222,11111222,11111222' 
TCOON,ioos:station:TCOON:005:1,2015-09-01T11:54:00Z,27.6346,-97.2370,0.0,7.7,145.0,10.2,'11111222,11111222,11111222' 
TCOON,ioos:station:TCOON:005:1,2015-09-01T12:00:00Z,27.6346,-97.2370,0.0,7.4,138.0,9.9,'11111222,11111222,11111222' 
TCOON,ioos:station:TCOON:005:1,2015-09-01T12:06:00Z,27.6346,-97.2370,0.0,7.6,127.0,9.4,'11111222,11111222,11111222' 
TCOON,ioos:station:TCOON:005:1,2015-09-01T12:12:00Z,27.6346,-97.2370,0.0,7.9,133.0,10.5,'11111222,11111222,11111222' 
TCOON,ioos:station:TCOON:005:1,2015-09-01T12:18:00Z,27.6346,-97.2370,0.0,7.7,134.0,10.3,'1111122,1111122,1111122' 
TCOON,ioos:station:TCOON:005:1,2015-09-01T12:24:00Z,27.6346,-97.2370,0.0,7.7,134.0,10.3,'11111222,11111222,11111222' 
TCOON,ioos:station:TCOON:005:1,2015-09-01T12:30:00Z,27.6346,-97.2370,0.0,6.3,131.0,8.9,'11111222,11111222,11111222' 
TCOON,ioos:station:TCOON:005:1,2015-09-01T12:36:00Z,27.6346,-97.2370,0.0,5.6,136.0,8.8,'11111222,11111222,11111222' 
TCOON,ioos:station:TCOON:005:1,2015-09-01T12:42:00Z,27.6346,-97.2370,0.0,5.9,138.0,7.8,'11111222,11111222,11111222' 
TCOON,ioos:station:TCOON:005:1,2015-09-01T12:48:00Z,27.6346,-97.2370,0.0,4.9,131.0,7.2,'11111222,11111222,11111222' 
TCOON,ioos:station:TCOON:005:1,2015-09-01T12:54:00Z,27.6346,-97.2370,0.0,6.0,132.0,7.5,'11111222,11111222,11111222' 
TCOON,ioos:station:TCOON:005:1,2015-09-01T13:00:00Z,27.6346,-97.2370,0.0,6.4,130.0,7.4,'11111222,11111222,11111222' 
TCOON,ioos:station:TCOON:005:1,2015-09-01T13:06:00Z,27.6346,-97.2370,0.0,6.2,126.0,8.2,'11111222,11111222,11111222' 
TCOON,ioos:station:TCOON:005:1,2015-09-01T13:12:00Z,27.6346,-97.2370,0.0,5.6,126.0,8.0,'11111222,11111222,11111222' 
TCOON,ioos:station:TCOON:005:1,2015-09-01T13:18:00Z,27.6346,-97.2370,0.0,5.6,126.0,8.0,'1111122,1111122,1111122' 
TCOON,ioos:station:TCOON:005:1,2015-09-01T13:24:00Z,27.6346,-97.2370,0.0,6.5,119.0,8.7,'11111222,11111222,11111222' 
TCOON,ioos:station:TCOON:005:1,2015-09-01T13:30:00Z,27.6346,-97.2370,0.0,6.2,117.0,8.3,'11111222,11111222,11111222' 
TCOON,ioos:station:TCOON:005:1,2015-09-01T13:36:00Z,27.6346,-97.2370,0.0,6.3,112.0,8.7,'11111222,11111222,11111222' 
TCOON,ioos:station:TCOON:005:1,2015-09-01T13:42:00Z,27.6346,-97.2370,0.0,6.9,110.0,8.4,'11111222,11111222,11111222' 
TCOON,ioos:station:TCOON:005:1,2015-09-01T13:48:00Z,27.6346,-97.2370,0.0,8.1,107.0,9.4,'11111222,11111222,11111222' 
TCOON,ioos:station:TCOON:005:1,2015-09-01T13:54:00Z,27.6346,-97.2370,0.0,7.7,105.0,9.8,'11111222,11111222,11111222' 
TCOON,ioos:station:TCOON:005:1,2015-09-01T14:00:00Z,27.6346,-97.2370,0.0,7.7,107.0,9.5,'11111222,11111222,11111222' 
TCOON,ioos:station:TCOON:005:1,2015-09-01T14:06:00Z,27.6346,-97.2370,0.0,7.7,106.0,9.3,'11111222,11111222,11111222' 
TCOON,ioos:station:TCOON:005:1,2015-09-01T14:12:00Z,27.6346,-97.2370,0.0,7.5,105.0,8.5,'11111222,11111222,11111222' 
TCOON,ioos:station:TCOON:005:1,2015-09-01T14:18:00Z,27.6346,-97.2370,0.0,6.7,108.0,8.5,'11111222,11111222,11111222' 
TCOON,ioos:station:TCOON:005:1,2015-09-01T14:24:00Z,27.6346,-97.2370,0.0,6.7,108.0,8.5,'1111122,1111122,1111122' 
TCOON,ioos:station:TCOON:005:1,2015-09-01T14:30:00Z,27.6346,-97.2370,0.0,5.8,111.0,8.1,'11111222,11111222,11111222' 
TCOON,ioos:station:TCOON:005:1,2015-09-01T14:36:00Z,27.6346,-97.2370,0.0,7.2,105.0,8.6,'11111222,11111222,11111222' 
TCOON,ioos:station:TCOON:005:1,2015-09-01T14:42:00Z,27.6346,-97.2370,0.0,8.0,93.0,9.1,'11111222,11111222,11111222' 
TCOON,ioos:station:TCOON:005:1,2015-09-01T14:48:00Z,27.6346,-97.2370,0.0,7.3,98.0,8.8,'11111222,11111222,11111222' 
TCOON,ioos:station:TCOON:005:1,2015-09-01T14:54:00Z,27.6346,-97.2370,0.0,8.1,92.0,9.1,'11111222,11111222,11111222' 
TCOON,ioos:station:TCOON:005:1,2015-09-01T15:00:00Z,27.6346,-97.2370,0.0,7.6,104.0,9.9,'11111222,11111222,11111222' 
TCOON,ioos:station:TCOON:005:1,2015-09-01T15:06:00Z,27.6346,-97.2370,0.0,7.6,104.0,9.5,'11111222,11111222,11111222' 
TCOON,ioos:station:TCOON:005:1,2015-09-01T15:12:00Z,27.6346,-97.2370,0.0,7.8,107.0,9.7,'11111222,11111222,11111222' 
TCOON,ioos:station:TCOON:005:1,2015-09-01T15:18:00Z,27.6346,-97.2370,0.0,7.8,107.0,9.7,'1111122,1111122,1111122' 
TCOON,ioos:station:TCOON:005:1,2015-09-01T15:24:00Z,27.6346,-97.2370,0.0,7.1,106.0,9.5,'11111222,11111222,11111222' 
TCOON,ioos:station:TCOON:005:1,2015-09-01T15:30:00Z,27.6346,-97.2370,0.0,8.4,111.0,9.7,'11111222,11111222,11111222' 
TCOON,ioos:station:TCOON:005:1,2015-09-01T15:36:00Z,27.6346,-97.2370,0.0,7.2,109.0,9.6,'11111222,11111222,11111222' 
TCOON,ioos:station:TCOON:005:1,2015-09-01T15:42:00Z,27.6346,-97.2370,0.0,7.5,111.0,9.8,'11111222,11111222,11111222' 
TCOON,ioos:station:TCOON:005:1,2015-09-01T15:48:00Z,27.6346,-97.2370,0.0,7.1,113.0,9.3,'11111222,11111222,11111222' 
TCOON,ioos:station:TCOON:005:1,2015-09-01T15:54:00Z,27.6346,-97.2370,0.0,6.0,116.0,8.5,'11111222,11111222,11111222' 
TCOON,ioos:station:TCOON:005:1,2015-09-01T16:00:00Z,27.6346,-97.2370,0.0,6.4,115.0,8.4,'11111222,11111222,11111222' 
TCOON,ioos:station:TCOON:005:1,2015-09-01T16:06:00Z,27.6346,-97.2370,0.0,6.8,120.0,9.1,'11111222,11111222,11111222' 
TCOON,ioos:station:TCOON:005:1,2015-09-01T16:12:00Z,27.6346,-97.2370,0.0,7.0,121.0,8.2,'11111222,11111222,11111222' 
TCOON,ioos:station:TCOON:005:1,2015-09-01T16:18:00Z,27.6346,-97.2370,0.0,5.9,140.0,8.3,'11111222,11111222,11111222' 
TCOON,ioos:station:TCOON:005:1,2015-09-01T16:24:00Z,27.6346,-97.2370,0.0,5.9,140.0,8.3,'1111122,1111122,1111122' 
TCOON,ioos:station:TCOON:005:1,2015-09-01T16:30:00Z,27.6346,-97.2370,0.0,6.5,129.0,8.1,'11111222,11111222,11111222' 
TCOON,ioos:station:TCOON:005:1,2015-09-01T16:36:00Z,27.6346,-97.2370,0.0,5.4,136.0,7.7,'11111222,11111222,11111222' 
TCOON,ioos:station:TCOON:005:1,2015-09-01T16:42:00Z,27.6346,-97.2370,0.0,5.8,130.0,7.7,'11111222,11111222,11111222' 
TCOON,ioos:station:TCOON:005:1,2015-09-01T16:48:00Z,27.6346,-97.2370,0.0,5.6,141.0,7.1,'11111222,11111222,11111222' 
TCOON,ioos:station:TCOON:005:1,2015-09-01T16:54:00Z,27.6346,-97.2370,0.0,6.4,129.0,8.3,'11111222,11111222,11111222' 
TCOON,ioos:station:TCOON:005:1,2015-09-01T17:00:00Z,27.6346,-97.2370,0.0,6.0,129.0,8.1,'11111222,11111222,11111222' 
TCOON,ioos:station:TCOON:005:1,2015-09-01T17:06:00Z,27.6346,-97.2370,0.0,4.6,148.0,8.4,'11111222,11111222,11111222' 
TCOON,ioos:station:TCOON:005:1,2015-09-01T17:12:00Z,27.6346,-97.2370,0.0,4.8,148.0,7.6,'11111222,11111222,11111222' 
TCOON,ioos:station:TCOON:005:1,2015-09-01T17:18:00Z,27.6346,-97.2370,0.0,5.2,154.0,7.7,'11111222,11111222,11111222' 
TCOON,ioos:station:TCOON:005:1,2015-09-01T17:24:00Z,27.6346,-97.2370,0.0,5.2,154.0,7.7,'1111122,1111122,1111122' 
TCOON,ioos:station:TCOON:005:1,2015-09-01T17:30:00Z,27.6346,-97.2370,0.0,5.0,139.0,6.7,'11111222,11111222,11111222' 
TCOON,ioos:station:TCOON:005:1,2015-09-01T17:36:00Z,27.6346,-97.2370,0.0,5.2,162.0,6.9,'11111222,11111222,11111222' 
TCOON,ioos:station:TCOON:005:1,2015-09-01T17:42:00Z,27.6346,-97.2370,0.0,4.7,149.0,6.5,'11111222,11111222,11111222' 
TCOON,ioos:station:TCOON:005:1,2015-09-01T17:48:00Z,27.6346,-97.2370,0.0,4.2,167.0,6.8,'11111222,11111222,11111222' 
TCOON,ioos:station:TCOON:005:1,2015-09-01T17:54:00Z,27.6346,-97.2370,0.0,4.9,144.0,6.7,'11111222,11111222,11111222' 
TCOON,ioos:station:TCOON:005:1,2015-09-01T18:00:00Z,27.6346,-97.2370,0.0,4.3,168.0,6.9,'11111222,11111222,11111222' 
TCOON,ioos:station:TCOON:005:1,2015-09-01T18:06:00Z,27.6346,-97.2370,0.0,5.3,157.0,6.7,'11111222,11111222,11111222' 
TCOON,ioos:station:TCOON:005:1,2015-09-01T18:12:00Z,27.6346,-97.2370,0.0,4.3,162.0,6.2,'11111222,11111222,11111222' 
TCOON,ioos:station:TCOON:005:1,2015-09-01T18:18:00Z,27.6346,-97.2370,0.0,4.3,162.0,6.2,'1111122,1111122,1111122' 
TCOON,ioos:station:TCOON:005:1,2015-09-01T18:24:00Z,27.6346,-97.2370,0.0,4.6,155.0,7.3,'11111222,11111222,11111222' 
TCOON,ioos:station:TCOON:005:1,2015-09-01T18:30:00Z,27.6346,-97.2370,0.0,4.2,174.0,6.6,'11111222,11111222,11111222' 
TCOON,ioos:station:TCOON:005:1,2015-09-01T18:36:00Z,27.6346,-97.2370,0.0,4.2,184.0,5.7,'11111222,11111222,11111222' 
TCOON,ioos:station:TCOON:005:1,2015-09-01T18:42:00Z,27.6346,-97.2370,0.0,3.9,168.0,5.9,'11111222,11111222,11111222' 
TCOON,ioos:station:TCOON:005:1,2015-09-01T18:48:00Z,27.6346,-97.2370,0.0,4.5,165.0,6.8,'11111222,11111222,11111222' 
TCOON,ioos:station:TCOON:005:1,2015-09-01T18:54:00Z,27.6346,-97.2370,0.0,3.9,163.0,6.1,'11111222,11111222,11111222' 
TCOON,ioos:station:TCOON:005:1,2015-09-01T19:00:00Z,27.6346,-97.2370,0.0,3.4,124.0,5.5,'11111222,11111222,11111222' 
TCOON,ioos:station:TCOON:005:1,2015-09-01T19:06:00Z,27.6346,-97.2370,0.0,4.9,106.0,6.8,'11111222,11111222,11111222' 
TCOON,ioos:station:TCOON:005:1,2015-09-01T19:12:00Z,27.6346,-97.2370,0.0,3.9,106.0,6.0,'11111222,11111222,11111222' 
TCOON,ioos:station:TCOON:005:1,2015-09-01T19:18:00Z,27.6346,-97.2370,0.0,3.9,106.0,6.0,'1111122,1111122,1111122' 
TCOON,ioos:station:TCOON:005:1,2015-09-01T19:24:00Z,27.6346,-97.2370,0.0,5.0,113.0,6.1,'11111222,11111222,11111222' 
TCOON,ioos:station:TCOON:005:1,2015-09-01T19:30:00Z,27.6346,-97.2370,0.0,5.6,108.0,6.4,'11111222,11111222,11111222' 
TCOON,ioos:station:TCOON:005:1,2015-09-01T19:36:00Z,27.6346,-97.2370,0.0,5.3,93.0,6.4,'11111222,11111222,11111222' 
TCOON,ioos:station:TCOON:005:1,2015-09-01T19:42:00Z,27.6346,-97.2370,0.0,5.8,104.0,6.7,'11111222,11111222,11111222' 
TCOON,ioos:station:TCOON:005:1,2015-09-01T19:48:00Z,27.6346,-97.2370,0.0,4.8,105.0,6.3,'11111222,11111222,11111222' 
TCOON,ioos:station:TCOON:005:1,2015-09-01T19:54:00Z,27.6346,-97.2370,0.0,5.4,108.0,7.0,'11111222,11111222,11111222' 
TCOON,ioos:station:TCOON:005:1,2015-09-01T20:00:00Z,27.6346,-97.2370,0.0,4.7,98.0,5.8,'11111222,11111222,11111222' 
TCOON,ioos:station:TCOON:005:1,2015-09-01T20:06:00Z,27.6346,-97.2370,0.0,5.5,94.0,6.8,'11111222,11111222,11111222' 
TCOON,ioos:station:TCOON:005:1,2015-09-01T20:12:00Z,27.6346,-97.2370,0.0,5.5,94.0,6.8,'1111122,1111122,1111122' 
TCOON,ioos:station:TCOON:005:1,2015-09-01T20:18:00Z,27.6346,-97.2370,0.0,6.0,99.0,7.1,'11111222,11111222,11111222' 